Find Kosmos-2330

NORAD ID: 23792 Int'l Des: 1996-009 Owner: VKS Country: RU operational
LEOCIRCULARPOLAR

Live Position

Loading 3D Globe...

About Kosmos-2330

Description loading...

Upcoming Passes

Passes for default location (London). Set your location on the main map for personalized predictions.

Altitude History

Loading altitude history...

Two-Line Element Set

1 23792U 96009F 26104.82078608 .00000006 00000-0 -26205-4 0 9995
2 23792 82.5856 24.2271 0010592 218.2492 141.7848 12.60975564387659
Epoch: Apr 14, 2026 • Age: 7 hours

Current Status

Altitude 1437.6 km
Velocity 7.15 km/s
Sub-Earth Point -68.35°S, 21.16°W
Launch Date Feb 19, 1996
Age 30.1 years
Type other

Technical Details

Classification Payload
Mass 225.00 kg
Dry Mass 225.00 kg
Total Mass 225.00 kg
Length 1.60 m
Diameter 0.80 m
Span 7.00 m
Shape Cyl + Ant
Manufacturer NPOPMR
Bus Type Strela-3
Phase Status In Orbit
Owner/State VKS/RU

Most Searched